Find Resurs-DK

NORAD ID: 29228 Int'l Des: 2006-021 Owner: TSSKBP Country: RU operational
LEOCIRCULAR

实时位置

正在加载3D地球...

关于 Resurs-DK

正在加载描述...

即将过境

Passes for default location (London). Set your location on the main map for personalized predictions.

高度历史

Loading altitude history...

两行轨道根数

1 29228U 06021A 26132.53594268 .00001334 00000-0 81360-4 0 9991
2 29228 69.9319 71.8296 0004573 331.6843 28.4074 15.13062578 97180
Epoch: May 12, 2026 • Age: 6 hours

当前状态

高度 531.9 km
速度 7.60 km/s
星下点 2.38°N, 103.77°E
发射日期 Jun 15, 2006
运行时间 19.9 years
类型 other

技术详情

分类 Payload
质量 6570.00 kg
干质量 5670.00 kg
总质量 6570.00 kg
长度 7.90 m
直径 2.70 m
跨度 10.00 m
形状 Cyl + 2 Pan
制造商 TSSKBP
平台类型 Resurs-DK
阶段状态 In Orbit
所有者/国家 TSSKBP/RU

Most Searched